Location: Tierra Monte Subdivision
(35.2092°N, 106.4864°W)
Time: 21:07:58
(UTC+00:00)

Cosmos 1125 Rocket - Pass Details

Date: 30 March 2020
Orbit: 758 x 779 km, 74.0° (Epoch: 26 May)

Event Time Altitude Azimuth Distance (km) Brightness Sun altitude
Exits shadow 11:18:43 - 185° (S) 2,404 5.8 -19.9°
Reaches altitude 10° 11:18:57 10° 184° (S) 2,315 5.7 -19.9°
Maximum altitude 11:24:08 63° 104° (ESE) 866 3.9 -18.9°
Drops below altitude 10° 11:29:23 10° 24° (NNE) 2,335 6.6 -17.9°
Sets 11:31:47 0° 22° (NNE) 3,267 7.4 -17.4°
